Regional Weather Roundup
Issued by NWS Northern Indiana

Home | Current Version | Previous Version | Graphics & Text | Print | Product List | Glossary On
Versions: 1 2 3 4 5 6 7 8 9 10 11 12 13 14 15 16 17 18 19 20 21 22 23 24 25 26 27 28 29 30 31 32 33 34 35 36 37 38 39 40 41 42 43 44 45 46 47 48 49 50
000
ASUS43 KIWX 301800
RWRIWX

KIWX WEATHER ROUNDUP
NATIONAL WEATHER SERVICE NORTHERN INDIANA
200 PM EDT TUE AUG 30 2016

NOTE: "FAIR" INDICATES FEW OR NO CLOUDS BELOW 12,000 FEET WITH NO
SIGNIFICANT WEATHER AND/OR OBSTRUCTIONS TO VISIBILITY.

* THESE STATIONS ARE NOT UNDER NWS QUALITY CONTROL. THEY ALSO MAY NOT
  REPORT WEATHER SUCH AS PRECIPITATION OR FOG.

INZ001>027-301900-
NORTHERN INDIANA

CITY           SKY/WX    TMP DP  RH WIND       PRES   REMARKS
GARY*          PTSUNNY   81  73  78 SE6       30.12F
VALPARAISO     MOSUNNY   79  72  78 CALM      30.12F
KNOX*          MOSUNNY   79  52  38 CALM      30.12F
SOUTH BEND     CLOUDY    77  72  84 SE6       30.13F
6HR MIN TEMP:  69; 6HR MAX TEMP:  77; 6HR PCP:  0.22;

ELKHART*       MOSUNNY  N/A N/A N/A CALM      30.13F
GOSHEN         MOSUNNY   80  69  69 CALM      30.13F
6HR MIN TEMP:  68; 6HR MAX TEMP:  80; 6HR PCP:  0.01;

MONTICELLO*    CLOUDY    83  69  63 SW5       30.11F
6HR MIN TEMP:  71; 6HR MAX TEMP:  84;

ANGOLA*        MOSUNNY   81  72  74 CALM      30.14F
FORT WAYNE     PTSUNNY   84  68  58 SW6       30.13F
6HR MIN TEMP:  67; 6HR MAX TEMP:  85;


$$
INZ028>050-301900-
CENTRAL INDIANA

CITY           SKY/WX    TMP DP  RH WIND       PRES   REMARKS
LAFAYETTE      MOSUNNY   84  73  69 W3        30.10F
6HR MIN TEMP:  70; 6HR MAX TEMP:  85;

KOKOMO*        PTSUNNY   86  72  62 SW5       30.12F
6HR MIN TEMP:  68; 6HR MAX TEMP:  88;

MUNCIE*        MOSUNNY   86  70  58 CALM      30.13F
6HR MIN TEMP:  70; 6HR MAX TEMP:  87;

INDIANAPOLIS   MOSUNNY   88  69  53 NW6       30.12F
6HR MIN TEMP:  74; 6HR MAX TEMP:  88;


$$
MIZ043>046-050>051-056>058-064>065-071>073-077>080-301900-
SOUTHWEST LOWER MICHIGAN

CITY           SKY/WX    TMP DP  RH WIND       PRES   REMARKS
BATTLE CREEK   CLOUDY    75  70  84 CALM      30.14F
6HR MIN TEMP:  66; 6HR MAX TEMP:  76; 6HR PCP: TRACE;

BENTON HARBOR  CLOUDY    79  70  74 S6        30.11F
6HR MIN TEMP:  67; 6HR MAX TEMP:  79; 6HR PCP:  1.66;

COLDWATER*     CLOUDY    74  70  88 CALM      30.15F
6HR MIN TEMP:  68; 6HR MAX TEMP:  74;

HILLSDALE*     PTSUNNY   73  68  82 CALM      30.16F
6HR MIN TEMP:  51; 6HR MAX TEMP:  84; 6HR PCP:  0.03;

HOLLAND        CLOUDY    80  69  69 SW6       30.12F
6HR MIN TEMP:  72; 6HR MAX TEMP:  80;

GRAND RAPIDS   CLOUDY    81  70  69 S12       30.12F
6HR MIN TEMP:  72; 6HR MAX TEMP:  82; 6HR PCP: TRACE;

KALAMAZOO      CLOUDY    76  68  76 SW3       30.13F
6HR MIN TEMP:  70; 6HR MAX TEMP:  77; 6HR PCP:  0.07;

STURGIS*       LGT RAIN  76  70  83 E7        30.14S
6HR MIN TEMP:  69; 6HR MAX TEMP:  79;

THREE RIVERS*  FAIR      76  73  88 SE5       30.14F
6HR MIN TEMP:  70; 6HR MAX TEMP:  76;


$$
OHZ001>008-015>018-024>025-301900-
NORTHWEST OHIO

CITY           SKY/WX    TMP DP  RH WIND       PRES   REMARKS
DEFIANCE       CLOUDY    84  66  54 NW3       30.14F
6HR MIN TEMP:  65; 6HR MAX TEMP:  85;

FINDLAY        MOSUNNY   85  62  46 SE3       30.13F
6HR MIN TEMP:  63; 6HR MAX TEMP:  86;

TOLEDO EXPRESS MOSUNNY   84  60  44 CALM      30.13F
6HR MIN TEMP:  62; 6HR MAX TEMP:  84;

TOLEDO METCALF PTSUNNY   84  56  38 CALM      30.14F
6HR MIN TEMP:  64; 6HR MAX TEMP:  84;

LIMA           MOSUNNY   83  67  58 VRB5      30.15F
6HR MIN TEMP:  65; 6HR MAX TEMP:  83;


$$
AND FOR LAKE MICHIGAN COASTAL AND OPEN LAKE BUOY OBSERVATIONS

STATION/POSITION TEMP    WIND        PRES    VSBY  WAVE
                 AIR SEA DIR/SP/G                  HT/PER
                 (F)     (DEG/KT/KT) (MB)    (MI)  (FT/S)
CALUMET HARBOR    74      80/  4/  7 1019.5F
MICHIGAN CITY     75     120/ 10/ 12   N/A
BURNS HARBOR      77     190/  8/ 12 1020.7F
SAINT JOSEPH      78     170/  2/  4 1021.0F
SOUTH LAKE BUOY   75 75  200/  8/ 10 1019.5          2/ 4
4 MI NW BRIDGMAN  70 70  190/  4/  4 1019.9F         0
MICHIGAN CITY     71 68  150/  6/ 10   N/A           1/ 3

$$
&&




USA.gov is the U.S. government's official web portal to all federal, state and local government web resources and services.